This is the latest recevied weather packets stored in our database for station/object DL5DI-H. If no packets are shown the sender has not sent any weather packets the latest 10 day(s).
| Time | Temp. | Humidity | Pressure | Rain* | Wind** | Luminosity | Snow |
|---|---|---|---|---|---|---|---|
| 1777230600 | 16.67° C | 37% | 1023.4 hPa | 0 mm | - | - | - |
| 1777230004 | 16.67° C | 37% | 1023.4 hPa | 0 mm | - | - | - |
| 1777229400 | 16.67° C | 37% | 1023.4 hPa | 0 mm | - | - | - |
| 1777228804 | 17.22° C | 36% | 1023.3 hPa | 0 mm | - | - | - |
| 1777228204 | 17.78° C | 34% | 1023.3 hPa | 0 mm | - | - | - |
| 1777227604 | 18.33° C | 34% | 1023.2 hPa | 0 mm | - | - | - |
| 1777227005 | 18.89° C | 33% | 1023.2 hPa | 0 mm | - | - | - |
| 1777226400 | 19.44° C | 32% | 1023.1 hPa | 0 mm | - | - | - |
| 1777225800 | 19.44° C | 31% | 1023 hPa | 0 mm | - | - | - |
| 1777225205 | 21.67° C | 30% | 1023 hPa | 0 mm | - | - | - |
| 1777224601 | 21.67° C | 30% | 1023 hPa | 0 mm | - | - | - |
| 1777224001 | 21.67° C | 30% | 1023 hPa | 0 mm | - | - | - |
| 1777223404 | 21.67° C | 30% | 1023 hPa | 0 mm | - | - | - |
| 1777222801 | 21.67° C | 30% | 1023 hPa | 0 mm | - | - | - |
| 1777222201 | 21.67° C | 29% | 1023.1 hPa | 0 mm | - | - | - |
| 1777221601 | 21.67° C | 29% | 1023.2 hPa | 0 mm | - | - | - |
| 1777221004 | 22.22° C | 29% | 1023.2 hPa | 0 mm | - | - | - |
| 1777220404 | 22.22° C | 30% | 1023.2 hPa | 0 mm | - | - | - |
| 1777219801 | 22.22° C | 31% | 1023.2 hPa | 0 mm | - | - | - |
| 1777219200 | 22.78° C | 30% | 1023.3 hPa | 0 mm | - | - | - |
| 1777218605 | 22.78° C | 30% | 1023.3 hPa | 0 mm | - | - | - |
| 1777218000 | 22.22° C | 39% | 1023.6 hPa | 0 mm | - | - | - |
| 1777217404 | 22.22° C | 39% | 1023.6 hPa | 0 mm | - | - | - |
| 1777216800 | 22.22° C | 39% | 1023.6 hPa | 0 mm | - | - | - |
| 1777216204 | 22.22° C | 39% | 1023.6 hPa | 0 mm | - | - | - |
* Rain latest hour (hover to see other rain measurements)
** Current wind speed in m/s (hover to see current wind gust speed)